User: anonymous   Login
Location: Unspecified
(0.0000°N, 0.0000°E)
Time: 08:20:40
(UTC+02:00)
Language:

Cosmos 773 Rocket - Orbit

View from above orbital plane
View from above orbital plane
View from above satellite
View from above satellite

Ground track
Ground track

The orbit data is extracted from the following two-line orbital elements,

1 08344U 75094B   16182.09329818  .00000042  00000-0  22092-4 0  9997
2 08344  74.0576  54.3979 0021181  42.2340 318.0441 14.39058096135033
Epoch (UTC): 30 June 2016 02:14:20
Eccentricity: 0.0021181
inclination: 74.0576°
perigee height: 746 km
apogee height: 777 km
right ascension of ascending node: 54.3979°
argument of perigee: 42.2340°
revolutions per day: 14.39058096
mean anomaly at epoch: 318.0441°
orbit number at epoch: 13503

The dashed part of the orbit path shows where the satellite is in the earth's shadow,  

DLR